[[{"header":{"parameterUnit":"m.s-1","parameterCategory":1,"la1":30.2991,"la2":30.254,"lo1":-89.0895,"lo2":-89.0444,"dy":0.0017,"dx":0.0017,"nx":28,"ny":28,"refTime":"2023-09-06T03:00:00:Z","depth":0,"parameterNumber":2,"parameterNumberName":"U-component_of_WINDS"},"data":[0,0,0,0,0,0,0,0,0,0,0,0,0,0,0,0,0,0,0,0,0,0,0,0,0,0,0,0,0,0,0,0,0,0,0,0,0,0,0,0,0,0,0,0,0,0,0,0,0,0,0,0,0,0,0,0,0,0,1.6532,1.6533,0,1.6642,1.6643,1.6645,1.6673,1.6672,1.6672,1.6671,1.6786,1.6789,1.6793,0,0,0,0,0,0,0,0,0,0,0,0,0,1.6348,1.6351,1.6532,1.6533,1.6535,1.6642,1.6644,1.6645,1.6673,1.6672,1.6672,1.6671,1.6785,1.6789,1.6793,0,0,0,0,0,0,0,0,0,0,0,0,0,1.644,1.6352,1.6532,1.6562,1.6565,1.6642,1.6644,1.6645,1.6673,1.6672,1.6671,1.667,1.6783,1.6789,1.6794,1.6849,0,0,1.6811,1.6813,0,0,0,0,0,0,0,0,1.6435,1.6447,1.6556,1.656,1.6564,1.6643,1.6621,1.6714,1.6674,1.6632,1.6671,1.667,1.6739,1.6748,1.6771,1.6854,1.6859,1.6811,1.6815,1.6817,1.6819,0,0,0,0,0,0,0,1.6428,1.6442,1.6576,1.6557,1.6562,1.657,1.6582,1.6639,1.669,1.6636,1.6638,1.6651,1.6741,1.6766,1.6774,1.6861,1.6811,1.6816,1.682,1.6822,1.6995,1.6996,0,0,0,0,0,0,1.6416,1.6437,1.6572,1.6579,1.6495,1.6574,1.6588,1.6619,1.669,1.67,1.6652,1.6652,1.6757,1.6768,1.6778,1.6847,1.6817,1.6822,1.6826,1.6994,1.6995,1.6997,0,0,0,0,0,0,1.6412,1.6428,1.6568,1.6508,1.6527,1.6579,1.6613,1.6621,1.6646,1.6702,1.6711,1.6667,1.6757,1.6771,1.6831,1.6852,1.6825,1.683,1.6992,1.6994,1.6996,1.6985,0,0,0,0,0,0,1.6407,1.6427,1.6447,1.6509,1.653,1.6618,1.6614,1.6624,1.6655,1.6656,1.6719,1.6728,1.6757,1.6823,1.6837,1.6859,1.6834,1.6991,1.6993,1.6996,1.6984,1.6987,1.6989,0,0,0,0,0,1.64,1.644,1.6448,1.6464,1.6557,1.6619,1.6631,1.6663,1.6657,1.6678,1.6714,1.6726,1.6847,1.6829,1.6845,1.6869,1.699,1.6993,1.6995,1.6983,1.6986,1.6989,0,0,0,0,0,0,1.638,1.6449,1.6458,1.6519,1.6563,1.6624,1.6652,1.6665,1.6712,1.6711,1.6749,1.6763,1.6821,1.6851,1.6829,1.6926,1.6919,1.6925,1.6904,1.6907,1.691,1.6901,1.6839,0,0,0,0,0,1.6383,1.6427,1.6485,1.6533,1.6555,1.6599,1.6628,1.6648,1.6695,1.6714,1.6755,1.68,1.6849,1.688,1.6928,1.6989,1.7003,1.7014,1.7016,1.7018,1.7022,1.7057,1.7063,1.7006,1.7006,1.7006,0,0,1.6389,1.6432,1.6457,1.653,1.6566,1.6612,1.6615,1.6663,1.6697,1.6722,1.6781,1.6812,1.6866,1.6927,1.6956,1.6954,1.7041,1.7021,1.7022,1.7026,1.7061,1.7066,1.7071,1.7008,1.7008,1.7008,0,0,1.6423,1.646,1.6504,1.654,1.6595,1.6625,1.6635,1.6694,1.6716,1.6776,1.6796,1.6838,1.692,1.6958,1.6988,1.7037,1.7049,1.7051,1.7064,1.7097,1.7102,1.7106,1.7123,1.7129,1.7056,1.7056,1.7056,0,1.6423,1.6492,1.6525,1.6572,1.6604,1.6628,1.6674,1.6708,1.6775,1.6797,1.6794,1.6898,1.6936,1.7006,1.7018,1.7042,1.7055,1.7044,1.7098,1.7103,1.7107,1.7124,1.713,1.7056,1.7056,1.7056,1.7056,0,1.6489,1.6537,1.6566,1.6631,1.6666,1.6712,1.6753,1.6785,1.6803,1.6833,1.6894,1.6941,1.6998,1.7017,1.7035,1.709,1.7087,1.709,1.7084,1.7112,1.7128,1.7135,1.7056,1.7056,1.7056,1.7056,0,0,1.6512,1.6595,1.6606,1.6635,1.6698,1.6736,1.6784,1.6839,1.6866,1.6912,1.6953,1.7023,1.7027,1.7061,1.7084,1.7113,1.7149,1.7113,1.7115,1.7118,1.7212,1.7208,1.7215,1.7158,1.7159,1.716,1.7207,0,1.6554,1.6639,1.6671,1.674,1.6785,1.681,1.6851,1.6895,1.6924,1.6967,1.7001,1.7049,1.7051,1.7071,1.7102,1.7138,1.7168,1.7135,1.7197,1.7198,1.7181,1.7224,1.722,1.7262,1.7214,1.7215,1.7216,0,1.6613,1.6659,1.6734,1.6792,1.6811,1.6848,1.6902,1.6943,1.6993,1.7012,1.705,1.7072,1.7123,1.7114,1.7185,1.7162,1.7189,1.7211,1.7214,1.722,1.7208,1.7231,1.7277,1.7283,1.7227,1.7226,1.7225,0,1.6621,1.6703,1.6758,1.6783,1.6852,1.6877,1.6907,1.6956,1.6988,1.7036,1.7057,1.711,1.7139,1.718,1.7215,1.7205,1.7284,1.7277,1.7302,1.7301,1.7316,1.7315,1.7366,1.7335,1.7335,1.7335,1.7334,0,1.6664,1.6708,1.6763,1.6797,1.6847,1.6884,1.6934,1.6965,1.7009,1.705,1.7075,1.7113,1.7157,1.7201,1.7229,1.7284,1.7297,1.7315,1.7321,1.7312,1.731,1.733,1.7327,1.7336,1.7336,1.7336,1.7335,0,1.6681,1.672,1.6782,1.6842,1.6859,1.6893,1.6945,1.6979,1.7011,1.7062,1.7076,1.7126,1.7179,1.7218,1.7287,1.7306,1.7364,1.7371,1.7347,1.735,1.7372,1.7369,1.7437,1.7448,1.741,1.741,1.7411,0,1.6705,1.674,1.6804,1.6833,1.6863,1.691,1.6942,1.698,1.7013,1.7073,1.71,1.7155,1.72,1.7284,1.7326,1.7379,1.7387,1.7408,1.7395,1.7385,1.7387,1.7384,1.7388,1.7409,1.7409,1.741,1.741,0,1.6743,1.6761,1.6807,1.686,1.6898,1.6941,1.6985,1.7008,1.7054,1.709,1.7144,1.7179,1.7249,1.7303,1.736,1.7392,1.7409,1.7413,1.7422,1.7412,1.7396,1.7404,1.735,1.7411,1.7411,1.7411,1.7411,1.7411,1.6765,1.6797,1.6847,1.6898,1.6935,1.6976,1.7011,1.7046,1.7092,1.7152,1.7172,1.7228,1.7278,1.7356,1.7389,1.7433,1.7433,1.7445,1.7448,1.7451,1.7449,1.7389,1.7444,1.7444,1.7444,1.7444,1.7444,0,1.6804,1.6838,1.6884,1.6945,1.6984,1.6997,1.7046,1.7079,1.7128,1.7173,1.7217,1.728,1.7332,1.7379,1.7434,1.7461,1.747,1.7474,1.7472,1.7479,1.7447,1.7434,1.7465,1.7465,1.7465,1.7465,1.7465,1.7465,1.6829,1.6884,1.6907,1.6981,1.7015,1.707,1.7097,1.7135,1.7171,1.724,1.7284,1.7314,1.736,1.7418,1.7467,1.748,1.7498,1.75,1.7515,1.7484,1.7481,1.7478,1.7466,1.7504,1.7504,1.7543,1.7543,1.7543]},{"header":{"parameterUnit":"m.s-1","parameterCategory":1,"la1":30.2991,"la2":30.254,"lo1":-89.0895,"lo2":-89.0444,"dy":0.0017,"dx":0.0017,"nx":28,"ny":28,"refTime":"2023-09-06T03:00:00:Z","depth":0,"parameterNumber":3,"parameterNumberName":"V-component_of_WINDS"},"data":[0,0,0,0,0,0,0,0,0,0,0,0,0,0,0,0,0,0,0,0,0,0,0,0,0,0,0,0,0,0,0,0,0,0,0,0,0,0,0,0,0,0,0,0,0,0,0,0,0,0,0,0,0,0,0,0,0,0,3.9625,3.9625,0,3.9653,3.9654,3.9654,3.9653,3.9652,3.9652,3.9651,3.9677,3.9678,3.9679,0,0,0,0,0,0,0,0,0,0,0,0,0,3.9562,3.9564,3.9625,3.9625,3.9626,3.9653,3.9654,3.9654,3.9653,3.9652,3.9652,3.9651,3.9677,3.9678,3.9679,0,0,0,0,0,0,0,0,0,0,0,0,0,3.959,3.9564,3.9625,3.9628,3.9629,3.9653,3.9654,3.9654,3.9653,3.9652,3.9652,3.9651,3.9676,3.9678,3.9679,3.9701,0,0,3.9684,3.9685,0,0,0,0,0,0,0,0,3.9588,3.9592,3.9627,3.9628,3.9629,3.9649,3.9641,3.967,3.9653,3.9644,3.9651,3.9651,3.9668,3.967,3.9677,3.9702,3.9703,3.9684,3.9685,3.9686,3.9686,0,0,0,0,0,0,0,3.9587,3.9591,3.9636,3.9628,3.9629,3.9626,3.9629,3.9647,3.9659,3.9644,3.9644,3.9648,3.9668,3.9675,3.9677,3.9704,3.9684,3.9686,3.9687,3.9687,3.9744,3.9744,0,0,0,0,0,0,3.9585,3.9589,3.9635,3.9637,3.9607,3.9628,3.9631,3.9643,3.9658,3.966,3.9648,3.9648,3.9673,3.9675,3.9678,3.9702,3.9686,3.9687,3.9688,3.9743,3.9744,3.9745,0,0,0,0,0,0,3.9583,3.9589,3.9634,3.9613,3.9619,3.963,3.9642,3.9644,3.9651,3.9662,3.9663,3.9654,3.9672,3.9676,3.9695,3.9703,3.9688,3.969,3.9743,3.9744,3.9744,3.9751,0,0,0,0,0,0,3.9581,3.9588,3.9598,3.9613,3.962,3.9652,3.9643,3.9645,3.9654,3.9654,3.9667,3.9669,3.9672,3.9692,3.9696,3.9705,3.9691,3.9742,3.9743,3.9744,3.975,3.9752,3.9754,0,0,0,0,0,3.9579,3.9599,3.9599,3.9605,3.9633,3.9653,3.9656,3.9661,3.9655,3.9664,3.967,3.9668,3.9701,3.9694,3.9699,3.9708,3.9741,3.9743,3.9744,3.9749,3.9752,3.9754,0,0,0,0,0,0,3.9585,3.9602,3.9601,3.9627,3.9638,3.9652,3.9664,3.9664,3.9676,3.9675,3.9679,3.9682,3.97,3.9706,3.9697,3.9727,3.972,3.9723,3.9723,3.9725,3.9727,3.9725,3.9692,0,0,0,0,0,3.9589,3.9605,3.9618,3.964,3.9645,3.9653,3.9662,3.9665,3.9676,3.968,3.9688,3.9698,3.971,3.9718,3.973,3.9751,3.9752,3.9759,3.9761,3.9762,3.9764,3.9771,3.9774,3.9749,3.9749,3.9749,0,0,3.9598,3.9609,3.9619,3.9641,3.965,3.9664,3.9658,3.9674,3.9683,3.9682,3.97,3.9706,3.9717,3.9735,3.9744,3.9741,3.9771,3.9764,3.9765,3.9765,3.9773,3.9775,3.9777,3.975,3.9749,3.9749,0,0,3.9621,3.9633,3.965,3.9658,3.9672,3.9677,3.9681,3.9694,3.9697,3.9716,3.9714,3.9724,3.9747,3.9753,3.976,3.9781,3.9779,3.9785,3.9793,3.9801,3.9803,3.9805,3.981,3.9812,3.9786,3.9786,3.9786,0,3.963,3.9653,3.9659,3.9674,3.9682,3.9682,3.9697,3.9705,3.9721,3.9726,3.9722,3.9747,3.9755,3.9774,3.9778,3.9785,3.9787,3.9783,3.9803,3.9804,3.9806,3.9811,3.9813,3.9787,3.9787,3.9787,3.9787,0,3.9662,3.9677,3.9689,3.9705,3.9714,3.973,3.9735,3.9743,3.9744,3.9748,3.9764,3.9773,3.9785,3.979,3.9791,3.9808,3.9805,3.9802,3.9795,3.9809,3.9813,3.9816,3.9787,3.9787,3.9787,3.9787,0,0,3.9691,3.9707,3.9711,3.9716,3.973,3.9741,3.9754,3.9767,3.9772,3.9783,3.9793,3.981,3.9806,3.9813,3.9814,3.9821,3.9834,3.9817,3.9817,3.9818,3.985,3.9851,3.9854,3.9833,3.9833,3.9834,3.9848,0,3.9713,3.9739,3.9742,3.9764,3.9776,3.9775,3.9786,3.9794,3.9798,3.9807,3.981,3.9821,3.9817,3.9821,3.9828,3.9831,3.984,3.983,3.984,3.984,3.9836,3.9856,3.9858,3.9872,3.985,3.9851,3.9851,0,3.9744,3.9754,3.9777,3.9785,3.979,3.9801,3.981,3.982,3.9828,3.983,3.9836,3.9836,3.9847,3.984,3.9854,3.9847,3.9851,3.9853,3.9854,3.9854,3.9846,3.9855,3.9877,3.9878,3.9854,3.9854,3.9854,0,3.9759,3.9779,3.9794,3.9799,3.981,3.9817,3.9821,3.9828,3.9834,3.9842,3.9846,3.9855,3.986,3.9866,3.9867,3.9862,3.988,3.9874,3.988,3.988,3.9883,3.9883,3.9904,3.9888,3.9888,3.9888,3.9888,0,3.9782,3.9796,3.9801,3.981,3.9824,3.9826,3.9839,3.9843,3.9849,3.9857,3.9857,3.9864,3.9866,3.9873,3.9874,3.9884,3.9887,3.9887,3.9887,3.9886,3.9886,3.9888,3.9887,3.9889,3.9889,3.9889,3.9888,0,3.9802,3.9806,3.9822,3.983,3.9832,3.9842,3.9848,3.9855,3.9858,3.9868,3.9871,3.9875,3.9883,3.9885,3.9895,3.9895,3.9906,3.9906,3.9904,3.9903,3.9909,3.9908,3.9931,3.9934,3.9918,3.9918,3.9918,0,3.9816,3.9826,3.9835,3.984,3.9845,3.9854,3.986,3.9862,3.9868,3.9875,3.9881,3.9889,3.9896,3.9909,3.9911,3.9918,3.9917,3.9924,3.9918,3.9916,3.9915,3.9914,3.9913,3.9925,3.9926,3.9926,3.9926,0,3.984,3.984,3.9849,3.9858,3.9865,3.9872,3.9878,3.9882,3.9885,3.9891,3.9899,3.9904,3.9913,3.992,3.9927,3.993,3.9927,3.9928,3.9929,3.9929,3.9926,3.9926,3.9906,3.9927,3.9927,3.9927,3.9927,3.9927,3.9855,3.9863,3.9869,3.9878,3.9883,3.9888,3.9895,3.9898,3.9905,3.9913,3.9914,3.9922,3.9926,3.9935,3.9938,3.9943,3.9941,3.9943,3.9944,3.9944,3.9944,3.9926,3.9944,3.9944,3.9944,3.9944,3.9944,0,3.9877,3.988,3.9889,3.9897,3.9903,3.9901,3.9907,3.9912,3.992,3.9925,3.9931,3.9939,3.9945,3.9948,3.9953,3.9957,3.9956,3.9958,3.9957,3.9958,3.9946,3.9944,3.9959,3.9959,3.9959,3.9959,3.9959,3.9959,3.9889,3.99,3.9901,3.9914,3.9918,3.9926,3.9929,3.9933,3.9937,3.9946,3.9951,3.9953,3.9956,3.9962,3.9967,3.9967,3.9968,3.9971,3.9971,3.996,3.9959,3.9957,3.9955,3.9972,3.9972,3.9981,3.9981,3.9981]}]]